Location: Unspecified
(0.0000°N, 0.0000°E)
Time: 11:21:55
(UTC+00:00)

Explorer 11/Cluster Stage 4 - Pass Details

Date: 09 October 2020
Orbit: 467 x 1258 km, 28.8° (Epoch: 28 October)

Event Time Altitude Azimuth Distance (km) Brightness Sun altitude
Rises 02:42:11 0° 317° (NW) 3,196 - -45.9°
Reaches altitude 10° 02:44:37 10° 326° (NW) 2,395 - -45.3°
Maximum altitude 02:49:57 37° 33° (NNE) 1,425 - -44.0°
Exits shadow 02:53:00 25° 79° (E) 1,909 8.9 -43.2°
Drops below altitude 10° 02:56:26 10° 98° (E) 2,924 10.1 -42.4°
Sets 02:59:41 0° 105° (ESE) 3,992 11.0 -41.6°
